Theta_e
345 345 346 347 348 347 348 352 353 354 355 354 354 353 352 353 354 354 354 352 352 353 352 351 351 351 352 352 352 352 352 352 353 353 354 354 354 354 352 348 343 339 338 337 337 336 335 336 337 338 336 334 336 338 337 336 335 336 337 337 337 338 337
345 345 346 347 347 348 349 352 354 354 355 355 355 354 353 354 355 355 354 353 352 352 352 352 351 352 352 352 352 352 352 353 353 354 354 354 354 354 353 350 345 341 338 337 337 336 336 336 337 337 336 335 337 337 336 335 334 336 339 338 338 338 337
346 346 347 347 349 349 350 352 354 354 354 354 355 354 355 355 353 353 354 354 354 354 354 353 351 352 353 353 353 353 353 353 354 354 354 354 354 354 353 351 346 341 338 337 336 336 336 337 338 338 336 336 337 336 334 335 335 335 338 338 338 338 338
347 347 347 348 350 351 350 352 353 354 354 354 354 355 356 354 352 352 354 355 355 356 355 353 352 353 353 353 353 353 354 353 354 354 354 354 354 354 354 350 344 340 338 337 336 336 336 338 338 338 336 335 336 335 334 335 336 336 336 336 337 337 337
347 347 348 348 349 350 350 351 353 354 353 354 355 356 356 355 354 355 356 355 356 355 354 353 353 354 354 353 354 354 354 354 354 354 354 354 355 355 354 348 342 338 337 336 334 335 337 339 338 336 335 335 335 335 334 335 335 335 334 334 336 337 337
346 347 349 348 348 349 349 349 351 353 353 354 355 356 356 356 355 356 356 356 357 356 356 356 355 354 354 354 354 354 354 354 354 354 354 354 355 355 352 346 340 338 337 334 333 335 338 339 338 334 333 335 336 336 336 335 334 333 333 333 333 334 336
346 348 349 349 348 348 348 348 350 352 352 354 355 355 356 355 356 356 357 357 357 358 358 358 356 354 354 354 354 354 354 354 354 354 354 354 355 354 350 343 338 336 334 332 333 336 338 338 337 333 332 334 336 335 335 335 334 332 332 332 332 331 332
346 348 347 348 348 347 347 348 350 352 353 354 355 356 355 355 356 356 357 358 358 358 359 358 358 356 354 355 354 354 354 354 354 354 353 353 353 351 346 340 336 334 333 333 334 336 336 337 336 333 331 333 334 333 333 333 333 332 332 332 332 332 332
344 347 347 347 346 346 348 349 351 353 355 356 355 356 355 356 356 357 357 358 358 359 358 358 359 356 355 355 354 354 353 352 352 351 350 351 351 349 344 338 335 333 333 334 334 334 334 335 335 333 332 333 333 333 333 332 332 333 333 332 332 332 333
346 347 347 347 346 348 349 350 354 356 357 358 357 357 357 356 356 357 358 358 358 359 359 359 360 357 356 355 353 352 352 349 347 347 349 351 351 349 344 338 334 333 334 334 333 332 332 334 334 333 333 333 332 332 333 333 333 333 333 333 333 333 334
348 348 348 349 349 350 350 351 355 357 358 359 357 357 358 357 357 357 357 359 358 359 359 359 359 357 356 355 351 349 348 346 346 348 350 352 351 348 343 337 334 333 334 335 333 331 332 333 333 333 333 332 331 331 332 333 333 333 333 333 334 334 334
348 350 350 350 350 351 353 354 356 357 358 358 357 357 358 357 358 357 357 359 359 359 359 359 359 357 356 353 349 346 346 347 348 351 352 352 350 347 341 337 333 333 334 335 333 331 332 332 333 333 333 331 331 331 331 332 333 333 333 333 333 334 334
348 349 349 350 351 352 354 355 356 356 357 357 356 356 357 357 356 357 358 358 358 359 359 360 358 356 354 351 347 346 347 347 350 353 352 350 348 344 340 336 333 333 334 335 335 332 331 332 333 334 334 333 332 331 331 331 332 332 333 333 333 334 334
346 346 347 349 350 352 354 355 355 355 356 356 356 355 356 356 356 357 358 358 358 359 359 359 357 355 352 349 346 346 346 346 350 353 350 347 346 342 338 335 334 333 334 336 337 335 333 333 334 334 334 334 333 332 330 330 331 332 333 333 333 333 332
344 344 345 348 350 352 354 354 354 354 354 356 356 355 355 355 356 357 357 357 358 358 359 358 356 354 352 348 346 345 343 344 348 348 343 343 345 340 334 332 333 333 335 337 338 337 335 335 335 335 335 335 334 332 330 329 332 333 332 331 330 330 330
344 343 344 346 349 351 353 353 354 354 354 356 355 354 355 355 355 356 355 357 358 358 358 357 355 354 351 348 346 345 343 343 344 341 338 341 343 336 327 328 329 331 335 337 338 339 337 336 336 336 335 336 334 331 329 331 333 333 331 329 329 330 329
344 344 345 346 348 350 351 353 354 353 353 355 355 355 355 355 355 355 354 355 357 358 358 356 355 353 349 347 346 344 343 342 341 340 340 341 341 331 323 325 329 331 335 336 338 341 339 337 337 336 335 335 334 331 330 332 334 332 330 330 330 330 329
345 346 346 347 349 350 351 352 353 353 353 354 355 355 354 355 355 355 355 356 356 357 357 355 354 352 348 346 345 343 342 342 341 342 343 342 338 329 323 328 333 336 337 337 338 341 339 338 337 336 335 333 330 328 331 334 335 333 331 330 331 330 330
347 346 347 348 349 349 349 349 350 352 354 354 354 354 353 354 355 355 356 356 356 356 355 354 352 350 347 345 345 344 343 342 342 343 343 341 337 331 326 330 336 338 338 337 338 340 340 338 337 337 336 332 326 325 330 334 335 335 333 331 331 331 330
347 346 346 347 347 347 349 350 351 352 354 353 353 352 353 354 354 355 356 356 355 355 354 352 350 348 346 345 345 344 343 342 342 343 343 341 338 334 330 332 337 340 339 338 339 340 340 339 338 337 336 332 325 324 329 334 335 335 334 332 332 331 331
348 346 346 347 347 348 350 350 351 352 352 352 351 351 352 353 354 354 354 354 355 354 353 351 349 347 346 345 345 345 344 343 343 344 343 339 336 335 334 335 338 340 340 339 339 340 340 339 338 337 336 333 326 324 329 334 334 334 334 334 333 332 331
345 344 346 348 349 351 352 351 351 352 351 350 350 351 352 352 353 354 354 354 354 354 352 350 348 348 346 345 345 345 345 344 343 343 341 337 334 335 335 336 337 339 340 339 339 340 340 339 338 337 337 335 328 325 329 333 333 333 333 334 334 333 331
343 344 346 348 349 351 351 349 349 349 348 349 351 352 353 354 354 354 354 354 354 354 351 349 349 348 346 345 345 345 345 343 342 340 338 336 335 335 336 338 338 339 340 339 338 339 339 339 338 338 338 337 330 326 330 334 334 333 333 334 334 333 332
341 343 345 347 348 351 351 351 350 347 347 351 354 354 354 354 354 355 355 354 354 353 351 349 350 348 347 346 345 345 345 343 340 339 337 336 336 337 339 340 338 339 340 340 338 339 339 339 339 339 339 336 332 330 333 336 336 335 334 334 333 333 332
343 344 348 350 351 353 353 352 350 348 349 353 353 352 352 353 355 355 355 354 354 353 351 350 350 348 347 347 346 345 345 342 340 340 338 337 337 338 340 340 339 340 341 340 339 340 340 339 339 338 338 336 334 334 336 336 336 336 335 334 333 333 332
345 347 350 352 354 355 355 353 352 354 355 354 351 349 350 354 355 355 355 354 353 353 352 351 350 348 348 347 346 346 345 342 341 340 339 338 338 339 340 340 339 340 341 339 340 339 339 338 338 337 337 337 336 336 336 336 336 336 335 334 333 333 332
348 350 351 353 355 356 356 355 355 356 354 351 348 348 351 354 355 355 354 353 353 354 353 352 350 348 347 347 346 346 344 341 340 340 338 337 338 339 339 338 338 339 340 339 339 338 336 336 337 338 338 338 338 337 336 336 336 335 334 333 334 334 333
351 352 353 354 354 354 354 354 353 352 350 347 347 348 349 352 354 354 353 352 353 353 352 351 350 348 347 347 346 345 344 342 340 338 337 337 338 339 338 336 336 337 338 337 337 336 335 336 337 337 338 338 338 337 336 335 335 334 334 334 334 334 333
352 352 351 352 352 351 352 352 350 348 347 345 346 347 347 350 353 352 351 351 351 350 349 348 348 348 347 347 345 344 344 343 341 339 338 339 340 339 337 335 335 336 335 335 335 335 334 335 335 336 337 338 338 337 336 335 335 334 334 333 333 333 333
352 350 351 352 351 351 352 352 350 347 344 343 344 345 346 348 350 350 350 350 348 345 345 345 346 346 347 346 345 345 344 343 342 341 341 341 340 338 337 336 336 335 334 334 334 334 334 335 336 337 338 339 339 338 337 335 334 333 333 332 332 331 330
352 352 353 353 352 351 351 351 350 347 344 342 341 341 343 346 348 349 348 346 342 341 342 343 343 345 345 345 345 344 344 343 342 341 341 341 339 338 337 337 336 335 334 334 334 334 335 337 338 338 339 339 338 338 336 333 332 332 332 331 330 330 329
351 352 353 353 352 350 349 349 349 348 346 342 339 339 340 341 345 346 344 341 340 340 340 341 342 344 343 343 344 343 343 343 342 341 342 341 339 338 337 336 336 335 334 334 334 334 337 338 338 338 338 337 337 335 334 332 332 333 332 330 329 329 329
348 350 351 351 350 350 350 352 352 351 349 345 340 339 339 339 340 341 340 339 339 338 338 340 342 342 342 342 342 342 342 342 341 341 341 341 339 337 335 335 335 334 334 335 336 336 338 337 337 337 336 336 335 334 334 334 333 333 331 331 330 329 328
348 349 350 349 349 351 353 355 354 353 351 347 342 340 339 338 338 338 338 338 338 337 338 340 341 342 341 341 340 340 341 341 340 340 340 340 338 336 335 336 336 335 336 337 337 337 337 336 336 336 335 335 335 335 335 336 334 332 330 329 329 328 328
346 347 348 348 349 349 351 353 353 351 349 345 342 340 339 337 336 337 337 337 337 337 339 340 340 340 340 339 340 340 339 339 340 340 339 338 337 336 337 337 336 337 338 338 337 336 336 335 335 334 333 334 334 334 336 336 333 329 327 326 326 326 326
345 346 346 345 345 346 347 348 348 348 346 343 341 340 339 337 336 336 336 336 336 337 338 339 339 339 339 338 339 339 338 339 339 338 337 336 335 335 334 334 335 337 337 336 335 335 334 333 333 332 332 332 332 331 332 331 329 326 325 325 324 323 324
344 345 345 344 345 346 346 345 346 347 345 343 341 340 339 338 336 335 335 334 334 336 338 339 339 339 339 339 339 338 338 339 339 337 335 334 334 335 335 334 333 333 333 332 331 332 332 332 331 331 330 330 329 328 327 326 325 325 324 322 322 322 323
343 343 343 343 344 345 345 345 346 346 345 343 341 340 339 338 337 336 335 335 335 337 339 340 340 339 338 338 337 336 336 337 336 334 333 333 333 334 334 331 328 326 326 327 328 330 330 330 329 328 328 327 326 325 325 324 323 322 321 320 320 321 322
Wind_Speed
15 16 16 14 14 15 14 15 18 21 22 24 25 27 27 27 26 27 30 35 37 36 37 38 37 36 36 35 35 35 35 34 34 32 31 30 27 26 24 24 25 24 23 22 19 18 17 15 14 11 10 10 10 10 9 9 9 9 9 9 8 7 6
15 15 15 14 15 15 15 17 20 21 22 24 25 26 26 26 28 30 31 35 39 39 39 39 38 38 37 36 36 36 36 35 35 33 32 31 28 26 25 25 25 25 23 21 19 17 16 14 13 12 11 12 11 11 11 10 10 9 9 9 8 8 7
15 15 15 16 16 16 16 17 20 23 23 24 25 25 26 29 35 38 35 35 37 37 37 38 40 39 37 37 37 37 37 36 35 34 33 31 29 27 25 25 25 24 22 21 18 17 16 15 14 13 13 13 12 12 11 11 10 9 9 9 8 8 8
15 16 17 17 17 16 15 17 20 24 26 26 28 27 30 36 40 39 36 36 35 34 36 39 40 40 39 39 38 38 38 37 36 34 32 31 29 26 25 25 24 24 22 20 18 18 17 15 15 15 14 15 14 13 11 11 11 10 10 9 9 9 9
15 16 16 16 16 15 15 16 20 24 26 27 28 28 31 35 35 32 32 34 34 36 40 41 39 39 39 39 39 39 39 38 36 34 32 31 28 26 25 25 25 24 22 20 19 18 18 17 16 16 16 16 15 13 12 12 11 11 10 10 10 10 10
15 15 15 15 16 16 17 18 22 26 28 28 29 29 30 30 29 29 31 32 33 34 36 37 37 39 40 39 40 39 38 38 36 35 33 31 28 25 25 25 25 25 23 21 20 19 19 18 17 17 17 16 16 14 13 12 12 11 11 11 11 10 10
14 14 15 16 15 17 18 19 23 28 29 28 28 28 29 27 27 29 29 30 32 31 30 32 36 39 40 39 40 39 38 37 36 35 33 30 27 25 25 25 25 25 23 21 21 20 20 19 18 18 17 17 16 15 14 13 13 12 12 12 12 12 12
12 12 15 16 15 17 18 17 21 25 26 25 24 24 26 26 26 28 28 28 30 29 30 31 34 39 40 39 40 39 38 37 36 34 31 27 25 24 24 25 25 25 23 21 21 20 19 19 19 18 18 18 17 16 15 15 14 14 14 14 14 14 14
11 11 14 15 16 16 15 15 18 20 22 23 23 24 27 27 27 29 29 29 28 29 31 31 32 38 41 39 38 37 36 34 31 28 26 24 24 23 24 25 25 24 22 21 21 20 20 20 20 19 19 19 19 17 17 16 16 15 15 16 16 16 17
10 11 12 13 13 12 11 12 14 15 16 19 21 23 26 26 26 27 27 27 27 28 31 30 27 32 38 38 34 31 26 20 18 20 23 25 24 24 26 27 26 24 22 22 21 20 21 21 21 20 20 21 21 20 19 19 18 17 17 18 19 19 20
9 10 11 12 11 11 11 12 12 11 13 17 20 22 23 23 24 25 25 26 27 27 28 28 25 27 34 32 24 19 16 15 18 23 27 29 27 26 28 28 27 24 22 22 22 21 22 22 22 22 22 23 23 22 22 21 20 19 19 20 21 21 22
8 9 11 12 12 11 11 11 11 11 13 16 19 20 21 22 23 24 24 25 27 26 25 26 24 24 26 21 19 22 22 25 32 34 33 33 30 28 29 28 26 24 23 23 23 22 22 23 24 25 24 24 24 24 24 22 22 21 21 22 22 23 23
7 8 9 10 10 10 10 10 12 13 13 16 18 19 20 22 23 24 24 25 25 24 22 22 21 19 19 20 24 30 35 39 41 40 38 36 30 28 29 28 26 26 25 25 25 24 24 25 26 26 26 25 25 25 25 23 23 23 22 23 24 24 23
8 9 9 10 11 12 12 12 12 12 13 15 17 19 19 21 22 22 22 22 23 23 21 19 19 20 21 25 31 37 39 40 42 43 41 37 32 29 29 29 29 28 27 27 27 26 26 27 27 27 27 26 26 26 25 24 24 24 24 24 23 22 21
11 11 12 12 13 13 13 13 12 13 14 15 17 19 19 19 20 19 21 21 22 22 20 19 23 24 25 29 33 35 36 39 42 41 37 36 34 31 31 31 32 31 30 29 28 29 29 28 27 27 27 27 27 26 25 25 25 24 23 21 20 20 20
12 13 14 15 14 13 13 13 13 13 13 14 17 19 19 19 20 21 22 21 21 22 20 22 28 27 26 30 34 35 37 38 35 29 29 34 36 35 35 37 36 34 33 32 31 31 31 29 28 28 28 28 27 26 26 26 25 24 21 20 20 20 20
12 13 14 13 13 13 12 12 12 13 13 14 17 20 20 20 19 20 21 21 21 21 21 25 28 27 28 33 36 36 36 33 29 27 32 40 40 39 41 41 38 36 34 33 32 33 32 30 29 29 29 28 27 27 27 26 25 23 21 20 20 20 20
13 14 13 12 11 11 12 13 13 14 15 16 18 20 20 19 18 19 20 20 19 20 20 23 24 26 30 33 32 33 34 34 34 36 42 45 42 42 44 41 37 35 34 33 33 33 32 31 30 30 28 27 27 28 28 27 25 22 22 22 21 21 21
12 13 12 12 12 13 14 14 14 15 15 16 19 21 21 20 19 18 18 17 18 19 20 21 23 28 30 28 26 30 33 36 39 41 44 44 42 42 42 38 35 35 35 34 34 34 33 31 31 30 29 27 27 27 29 28 25 23 22 23 22 21 22
10 10 11 11 12 13 12 10 9 11 12 14 16 16 16 17 15 14 15 17 18 20 21 22 25 29 30 26 26 30 32 35 40 42 44 45 41 38 38 36 35 35 35 35 33 33 32 31 31 30 29 28 26 26 28 28 26 24 23 24 23 22 23
7 9 11 12 12 11 10 9 8 9 9 10 12 12 13 14 14 14 15 18 19 20 23 26 28 30 30 27 27 30 31 34 40 43 44 41 36 33 34 34 33 33 33 34 34 33 32 30 29 28 28 27 25 24 27 29 27 25 24 24 25 23 24
8 9 9 9 11 11 10 10 10 10 11 12 13 13 14 15 16 16 16 18 19 20 24 28 28 27 28 27 29 31 31 34 41 44 40 36 33 32 33 32 31 31 31 32 32 31 30 29 28 27 27 27 26 25 28 29 28 25 25 26 26 25 25
9 8 5 5 8 10 11 12 13 15 16 16 15 15 15 16 17 17 17 18 19 20 23 25 25 25 27 28 29 31 31 36 42 43 38 34 32 32 31 31 31 30 29 29 28 27 28 27 26 26 27 27 27 28 30 30 27 25 25 26 26 25 25
8 9 9 9 10 12 13 14 15 18 20 18 15 14 14 15 17 17 17 17 19 20 21 22 23 25 28 28 29 30 31 36 42 43 39 34 32 30 28 28 31 31 29 28 27 26 26 24 23 25 28 28 29 30 30 30 28 25 24 24 24 24 23
9 10 10 11 12 13 14 15 15 16 17 16 14 14 15 16 17 17 16 17 18 19 20 21 23 27 28 26 27 30 30 34 42 44 37 30 28 29 27 26 29 31 30 29 27 24 22 21 22 26 28 29 30 29 29 29 28 26 25 24 24 23 22
10 10 10 11 11 13 16 17 16 13 12 13 13 15 16 17 17 16 16 16 17 18 20 22 25 27 27 24 25 28 30 36 44 44 35 27 25 25 25 27 29 29 27 26 22 20 20 21 24 26 26 26 27 26 25 26 27 26 25 23 23 22 19
11 11 12 13 13 13 14 14 14 13 13 13 14 16 17 17 16 14 14 15 16 17 19 21 22 24 23 22 24 27 29 36 44 44 37 29 23 20 22 27 30 28 25 23 21 21 22 22 22 22 21 21 20 20 22 23 24 24 23 21 20 19 17
11 12 13 14 13 14 15 14 14 15 13 13 15 16 17 17 13 11 13 14 13 15 17 19 20 20 20 21 23 25 27 32 39 40 33 25 21 20 22 27 29 27 24 22 20 20 20 20 21 21 19 18 17 18 20 22 21 19 19 17 16 16 16
11 11 11 12 11 13 16 16 14 13 12 12 14 15 15 15 12 10 11 11 11 13 15 18 19 18 18 19 21 23 26 27 29 31 26 21 21 22 23 26 29 26 23 21 19 17 18 19 20 20 18 16 14 13 14 16 16 15 14 13 13 14 15
11 11 11 12 12 13 15 14 13 13 11 11 12 13 13 12 11 11 10 9 12 14 14 15 17 17 17 18 20 22 25 24 24 24 22 21 22 23 24 26 26 24 24 23 21 19 19 19 18 16 14 12 12 10 9 10 11 10 9 9 9 10 11
10 11 12 13 14 16 17 15 14 13 12 10 9 9 9 9 9 10 9 9 11 12 11 13 15 16 17 18 19 20 22 23 23 21 21 22 23 23 23 24 23 23 24 23 21 20 18 15 14 12 11 11 11 9 7 7 6 5 5 5 6 7 7
10 11 12 12 13 15 16 15 14 13 12 10 8 7 7 6 6 7 7 8 8 9 10 13 14 15 16 17 18 18 19 21 21 20 20 22 21 19 19 21 20 21 21 21 20 18 15 12 9 8 9 10 10 8 6 5 3 3 3 3 3 4 5
10 10 11 11 9 9 11 12 11 10 11 9 7 6 6 6 6 6 6 6 7 8 11 13 14 14 15 15 16 17 18 18 18 18 18 17 16 16 18 19 18 17 17 17 15 12 9 8 8 8 10 11 9 7 6 4 3 2 2 2 3 3 4
9 9 10 11 9 8 9 9 8 8 8 7 6 5 5 5 6 6 7 8 8 10 12 13 13 13 13 14 14 15 15 15 15 16 15 13 13 15 16 15 15 15 15 14 12 10 10 11 11 11 11 10 7 5 3 2 2 2 1 2 3 3 4
10 10 11 11 11 10 9 8 7 7 6 5 4 5 5 5 6 7 9 10 11 12 13 13 12 12 12 13 12 12 13 13 13 13 12 12 14 16 15 14 14 13 12 13 13 14 15 14 12 10 9 6 4 3 2 2 2 1 2 4 4 4 5
9 9 10 9 9 8 8 6 5 5 4 4 4 6 7 7 8 8 8 9 11 13 13 13 12 11 10 11 10 10 11 11 12 13 14 16 18 19 17 14 12 12 12 14 15 15 14 12 9 8 6 4 3 2 2 2 2 3 4 5 5 5 5
7 7 7 7 6 5 4 3 3 4 5 5 5 7 7 8 9 9 9 10 11 12 12 12 11 9 9 9 9 9 8 7 9 13 17 18 19 19 18 15 12 11 12 13 12 11 10 9 7 5 4 3 3 2 2 1 2 4 4 5 4 3 2
8 7 6 5 4 3 3 4 4 5 5 5 6 7 7 8 9 10 9 9 11 11 11 11 11 12 12 11 10 9 9 9 9 10 13 14 14 15 17 18 15 12 11 10 8 7 7 7 6 5 4 3 3 2 2 1 2 2 2 2 1 1 1
Wind_Direction
204 204 202 197 198 202 200 193 193 195 193 194 198 199 200 200 200 201 205 209 211 213 216 218 218 219 220 222 224 225 225 225 224 225 226 226 227 226 224 222 220 220 219 218 219 221 221 218 219 228 236 229 222 230 242 246 244 239 231 231 234 235 236
202 202 201 199 201 203 200 194 194 197 197 196 197 197 197 197 199 202 205 208 211 213 214 216 217 218 219 219 221 223 223 223 223 224 224 224 225 226 226 226 225 224 224 224 226 227 224 221 224 233 234 225 223 236 244 240 235 230 225 228 230 233 236
197 197 196 198 200 199 196 193 194 197 198 197 197 195 194 197 203 205 204 206 209 211 212 214 216 217 218 218 220 221 221 221 221 221 222 223 223 225 226 227 228 228 228 227 228 227 223 222 227 232 229 222 226 238 239 231 228 226 224 227 229 233 239
191 194 195 198 198 197 195 194 195 197 198 198 197 195 196 202 205 205 204 205 206 207 210 214 215 215 216 217 218 219 219 220 220 220 222 223 224 226 226 226 226 227 227 228 228 225 222 223 226 228 226 223 227 232 231 227 227 228 228 230 234 242 249
192 195 195 198 200 199 197 197 197 197 198 199 197 197 200 203 202 201 203 205 206 208 212 214 214 214 216 217 218 219 219 219 219 220 221 223 224 225 225 226 225 225 226 227 226 223 220 221 224 226 224 222 224 226 228 231 232 233 235 237 242 250 256
194 195 194 196 199 198 198 199 199 197 198 198 196 198 201 201 198 199 202 203 205 208 210 211 213 214 216 218 218 218 219 219 218 218 219 220 221 222 224 226 226 225 225 225 223 221 219 221 225 226 222 220 221 223 228 234 236 238 241 243 248 254 259
193 192 193 194 195 197 197 198 199 199 199 198 196 198 199 198 199 201 202 203 204 204 205 208 212 215 216 217 217 217 217 217 216 216 216 216 218 221 223 225 225 225 225 225 224 221 219 222 226 226 222 221 223 225 230 234 236 240 243 246 251 255 259
197 191 193 195 195 196 196 196 196 196 194 194 195 195 196 197 200 202 202 203 203 203 204 206 210 215 216 216 216 215 215 215 214 213 211 211 214 219 223 226 226 225 225 227 227 224 222 224 227 226 224 225 227 228 231 235 236 241 245 249 252 255 258
199 193 194 198 198 198 197 193 189 186 185 186 189 190 192 196 199 201 203 204 202 202 206 206 208 213 216 215 214 212 211 211 208 205 204 207 212 217 224 228 229 227 226 229 229 226 225 227 227 227 226 228 230 230 232 236 238 242 247 250 254 255 257
193 192 195 197 197 194 189 184 179 178 182 184 186 190 193 196 199 200 203 204 203 205 208 206 205 210 214 213 209 207 203 193 188 194 203 209 214 219 224 227 229 228 229 232 232 228 227 228 228 228 228 230 231 231 233 237 240 244 248 252 255 257 259
190 187 190 192 190 182 180 181 179 182 187 187 190 193 194 195 197 199 202 203 204 207 208 205 203 204 208 207 194 178 162 160 185 203 209 213 216 219 223 226 227 227 230 234 234 231 229 228 228 228 229 229 230 231 233 237 241 246 250 254 257 260 263
189 185 188 188 185 181 180 181 182 185 187 188 192 194 193 195 197 200 203 203 205 208 206 205 202 197 197 186 152 145 158 182 200 208 211 212 213 216 223 226 226 227 231 235 236 233 231 230 229 230 231 231 231 233 235 239 243 248 252 256 260 263 266
189 187 186 182 180 178 177 180 182 184 186 188 192 193 192 196 200 201 204 204 205 208 204 201 195 182 170 155 155 172 187 195 201 207 209 206 205 213 221 224 225 227 231 235 237 235 233 232 233 234 235 237 238 239 239 242 246 251 255 259 261 263 264
187 187 182 177 180 180 179 183 181 179 184 187 190 192 193 198 200 200 202 202 202 205 202 195 186 173 164 168 180 190 192 193 201 207 204 198 198 207 216 221 225 228 232 236 238 238 237 236 236 237 238 240 242 243 244 245 249 254 257 259 259 258 257
189 184 181 183 186 184 181 180 176 177 183 185 187 189 192 196 197 198 200 199 200 202 198 191 187 182 177 180 187 189 189 195 203 202 195 193 198 203 209 217 222 225 230 235 238 241 240 238 239 241 241 242 244 246 246 246 249 254 256 256 254 253 252
190 185 188 189 186 183 181 177 175 176 179 182 186 189 191 193 195 197 199 199 199 197 193 191 191 186 179 181 187 190 191 195 196 189 185 193 199 200 205 213 218 220 225 231 236 241 242 239 240 242 243 245 246 246 245 246 249 254 254 252 251 251 250
193 192 194 191 183 178 175 171 170 174 178 185 188 189 191 193 193 195 198 200 198 193 190 191 189 184 181 185 189 190 188 187 181 179 190 199 201 200 204 212 216 217 221 227 233 239 242 240 240 241 243 245 246 245 244 245 250 254 252 250 250 249 248
194 194 192 185 176 171 171 171 173 178 183 188 189 189 191 190 188 191 195 195 191 187 185 185 183 183 184 185 186 185 182 181 180 187 197 202 202 201 204 211 216 216 218 226 232 237 240 240 239 240 242 243 245 245 244 247 252 255 254 253 253 251 249
197 194 184 174 171 174 178 179 180 183 184 184 186 189 191 188 187 190 188 183 180 180 178 177 182 185 182 179 181 180 179 181 184 190 198 203 204 203 205 211 215 215 218 224 230 235 238 240 242 242 243 244 247 246 244 249 255 257 257 257 258 257 253
195 182 174 173 177 182 182 176 175 178 178 180 182 183 183 180 179 179 176 176 179 178 176 177 181 183 182 181 183 181 179 182 187 192 199 203 205 206 207 211 214 215 218 222 228 233 237 239 242 242 243 247 251 250 248 253 258 260 261 261 262 262 257
186 172 174 175 176 177 173 167 168 166 162 165 167 166 167 171 173 173 174 178 178 176 179 182 182 183 184 184 184 183 182 183 188 195 201 203 205 208 211 213 215 216 219 223 228 233 236 240 242 243 244 250 256 256 255 257 259 261 264 264 265 265 259
188 183 186 178 170 165 159 159 159 154 152 156 160 165 170 173 174 173 172 176 175 174 180 182 181 182 184 184 185 186 184 185 190 197 202 202 204 209 213 215 216 218 221 225 229 233 238 242 245 246 249 255 259 260 259 261 262 263 266 267 266 263 259
170 164 153 141 142 138 137 147 152 155 160 164 167 170 169 168 169 167 167 173 173 172 176 179 181 183 185 187 189 187 187 188 191 196 202 203 204 208 211 213 215 217 221 225 229 234 240 243 246 250 254 257 259 261 261 262 264 266 269 271 268 263 259
146 138 129 131 138 139 143 152 156 163 168 164 158 159 159 160 163 164 166 171 173 173 175 180 184 187 188 191 190 190 191 190 191 198 205 205 205 208 209 210 212 215 220 224 227 233 238 243 249 255 258 259 260 261 261 261 264 266 269 273 272 267 262
132 131 134 141 146 145 146 148 150 158 160 149 143 153 161 162 162 165 170 173 173 175 179 185 190 192 193 192 190 191 193 191 194 203 207 204 205 207 206 206 209 213 219 224 227 234 240 246 254 258 260 261 262 262 259 259 264 266 266 268 269 268 266
126 128 129 129 132 134 138 143 146 145 137 131 142 158 162 161 163 167 170 170 173 180 186 192 196 196 194 191 189 192 193 193 198 205 207 206 206 204 201 204 208 211 216 221 226 235 246 255 260 261 261 262 263 263 260 258 262 266 267 267 268 270 267
109 112 116 121 128 131 128 126 121 112 112 128 149 159 161 161 162 163 166 170 178 189 194 196 197 195 193 191 191 193 193 193 199 205 209 210 208 202 200 204 207 209 213 218 227 238 249 259 262 259 259 260 260 260 259 260 263 267 269 270 270 270 265
105 104 108 113 119 118 109 98 93 95 107 133 151 157 161 160 154 154 165 175 186 194 196 198 197 194 192 192 193 194 194 196 201 206 210 212 208 201 201 206 209 211 213 220 230 240 250 260 261 260 261 261 260 260 259 262 266 268 270 271 270 268 264
91 88 90 90 88 93 97 95 92 94 105 130 144 150 156 154 147 151 164 177 191 197 198 200 198 194 193 193 194 196 197 199 201 204 207 211 207 200 199 204 209 210 210 217 230 242 252 260 263 265 265 262 259 259 258 263 269 270 269 269 265 263 262
72 73 74 72 70 77 86 90 92 90 95 115 133 143 151 153 152 154 161 179 195 197 197 198 196 193 193 194 194 197 199 200 198 199 204 208 204 198 199 204 207 206 208 217 230 242 252 260 263 263 260 255 252 249 250 261 268 268 263 256 250 253 257
74 77 77 73 71 74 79 84 90 90 86 88 107 131 145 152 153 151 156 176 190 192 192 192 190 189 193 197 197 198 199 199 196 198 204 207 202 197 200 207 208 206 208 218 229 239 248 256 257 254 250 249 248 243 240 250 256 256 257 254 248 249 254
81 81 83 83 81 85 91 95 96 96 93 87 91 115 133 145 148 145 154 174 181 184 189 188 183 184 191 197 198 197 197 194 191 195 203 205 201 198 202 210 214 210 211 220 231 238 243 243 241 243 246 247 245 235 224 219 218 233 253 264 267 265 266
80 77 79 84 90 99 103 102 100 101 103 103 107 123 137 149 151 151 163 171 171 180 187 185 179 180 188 194 194 193 194 191 188 193 200 198 194 198 205 213 220 220 220 225 229 230 231 226 222 225 231 234 232 219 204 193 202 232 262 282 291 290 288
58 58 60 63 65 66 72 77 83 91 97 107 121 135 144 148 152 161 166 163 163 173 179 179 176 176 182 188 187 186 187 186 185 188 190 183 183 193 200 204 209 212 215 218 217 213 214 215 215 219 222 221 217 208 193 178 188 194 264 295 289 287 291
46 46 46 45 44 44 48 55 65 75 83 100 126 138 143 145 153 163 161 157 160 167 169 169 170 171 174 179 181 180 180 183 183 177 169 164 172 180 184 186 191 198 208 215 218 218 215 208 204 210 214 209 205 208 194 185 197 230 322 317 311 307 300
51 51 47 45 45 48 49 53 69 90 108 137 154 154 151 150 153 157 156 157 162 166 165 162 160 161 164 170 177 178 176 179 183 180 175 174 175 174 173 175 183 194 205 211 213 212 208 199 195 200 201 193 199 214 205 209 258 311 325 327 325 317 303
55 60 59 58 62 66 71 84 116 139 150 162 167 160 153 151 156 161 164 168 169 167 162 155 150 151 156 161 165 167 164 166 178 185 185 181 177 173 168 165 169 183 195 200 200 197 191 184 181 183 183 186 196 200 198 239 293 311 319 324 323 312 294
58 66 74 80 87 104 129 144 159 161 157 162 169 164 156 156 162 166 166 168 170 165 158 152 145 136 130 129 134 144 157 164 173 182 182 176 172 171 166 160 157 161 172 178 176 168 161 158 157 156 156 165 176 175 180 242 294 306 318 331 330 288 253